User: anonymous   Login
Location: Brno
(49.2000°N, 16.6330°E)
Time: 01:11:36
(UTC+01:00)
Language:

ISS - Orbit

View from above orbital plane
View from above orbital plane
View from above satellite
View from above satellite

Ground track
Ground track

The orbit data is extracted from the following two-line orbital elements,

1 25544U 98067A   14330.65834508  .00020608  00000-0  34875-3 0  4676
2 25544 051.6481 014.0734 0007283 070.0011 075.0505 15.51509964916536
Epoch (UTC): 26 November 2014 15:48:01
Eccentricity: 0.0007283
inclination: 51.6481°
perigee height: 407 km
apogee height: 417 km
right ascension of ascending node: 14.0734°
argument of perigee: 70.0011°
revolutions per day: 15.51509964
mean anomaly at epoch: 75.0505°
orbit number at epoch: 91653

The dashed part of the orbit path shows where the satellite is in the earth's shadow,  

DLR